#timestamp,LO_Frequency,Hit,StdDev 
1509951615.3,286046992.1,N
1509951635.1,286046989.1,Y
1509951655.9,286046990.9,P
1509951675.7,286046992.6,N
1509951695.5,286046989.0,P
1509951715.4,286046989.8,N
1509951735.2,286046992.4,N
1509951755.0,286046990.5,Y
1509951755.9,286046990.5,P
1509951775.8,286047000.5,N
1509951795.6,286046999.3,N
1509951815.4,286047000.1,N
1509951835.3,286046999.7,N
1509951855.1,286047000.6,N
1509951856.0,286047000.6,N
1509951875.8,286046997.6,N
1509951895.7,286046997.2,N
1509951915.5,286046997.2,N
1509951935.3,286046996.5,N
1509951955.2,286046998.2,N
1509951975.9,286046996.0,N
1509951995.7,286046991.9,N
1509952015.6,286046986.9,Y
1509952035.4,286046990.6,P
1509952055.2,286046987.3,P
1509952075.1,286046985.3,P
1509952076.0,286046985.3,Y
1509952095.8,286046999.3,P
1509952115.7,286046999.7,N
1509952135.5,286047005.5,N
1509952155.3,286047003.1,N
1509952175.2,286047003.6,N
1509952195.9,286047003.5,N
1509952215.7,286047004.0,N
1509952235.5,286047003.5,N
1509952255.4,286047001.9,N
1509952275.2,286047002.3,N
1509952295.0,286047001.1,N
1509952295.9,286047001.1,N
1509952315.8,286047000.1,N
1509952335.6,286046998.6,N
1509952355.4,286047001.2,N
1509952375.3,286046999.7,N
1509952395.1,286047001.8,N
1509952415.9,286047001.7,N
1509952435.7,286047000.0,N
1509952455.5,286046999.7,N
1509952475.3,286046998.5,N
1509952495.2,286046993.8,N
1509952515.0,286046996.4,N
1509952515.9,286046996.4,N
1509952535.8,286046985.4,Y
1509952555.6,286046986.1,P
1509952575.4,286046984.1,N
1509952595.3,286046979.6,N
1509952615.1,286046978.1,N
1509952616.0,286046978.1,N
1509952635.8,286046976.2,Y
1509952655.7,286046995.7,P
1509952675.5,286046996.8,N
1509952695.3,286046997.7,N
1509952715.2,286046999.0,N
1509952735.9,286046996.9,N
1509952755.7,286046998.1,N
1509952775.6,286046998.5,N
1509952795.4,286047002.3,N
1509952815.2,286047004.5,N
1509952835.1,286047011.9,N
1509952836.0,286047011.9,N
1509952855.8,286047009.4,N
1509952875.6,286047008.5,N
1509952895.5,286047006.8,N
1509952915.3,286047006.9,N
1509952935.1,286047009.0,N
1509952955.9,286047007.5,N
1509952975.7,286047003.8,N
1509952995.5,286047007.4,N
1509953015.4,286047008.4,N
1509953035.2,286047012.9,N
1509953055.0,286047017.2,N
1509953055.9,286047017.2,N
1509953075.8,286047009.7,N
1509953095.6,286047006.3,N
1509953115.4,286047008.7,N
1509953135.3,286047004.6,N
1509953155.1,286047001.8,N
1509953156.0,286047001.8,N
1509953175.8,286047005.5,N
1509953195.7,286047005.7,N
1509953215.5,286047007.2,N
1509953235.3,286047002.9,N
1509953255.2,286047005.1,N
1509953275.9,286047005.2,N
1509953295.7,286047006.6,N
1509953315.6,286047007.8,N
1509953335.4,286047011.6,Y
1509953355.2,286047007.0,P
1509953375.1,286047003.6,P
1509953376.0,286047003.6,N
1509953395.8,286047000.8,N
1509953415.6,286046999.2,N
1509953435.5,286046995.7,N
1509953455.3,286046994.0,N
1509953475.1,286046990.3,N
1509953495.9,286046990.0,N
1509953515.7,286046987.1,N
1509953535.5,286046989.3,N
1509953555.4,286046992.3,N
1509953575.2,286046995.0,N
1509953595.0,286047000.3,N
1509953595.9,286047000.3,N
1509953615.8,286046996.8,N
1509953635.6,286047002.1,N
1509953655.4,286047001.3,N
1509953675.3,286047001.1,N
1509953695.1,286046996.6,N
1509953715.8,286046999.4,N
1509953735.7,286046997.4,N
1509953755.5,286046997.9,N
1509953775.3,286046993.8,N
1509953795.2,286046995.6,N
1509953815.0,286046993.0,N
1509953815.9,286046993.0,N
1509953835.8,286046995.8,N
1509953855.6,286047000.9,N
1509953875.4,286046997.0,N
1509953895.3,286046993.6,N
1509953915.1,286046992.8,N
1509953935.8,286046992.6,N
1509953955.7,286046996.0,N
1509953975.5,286046994.0,N
1509953995.3,286046995.5,N
1509954015.2,286046999.7,N
1509954035.0,286046998.7,N
1509954035.9,286046998.7,N
1509954055.8,286046997.8,N
1509954075.6,286046998.7,N
1509954095.4,286046993.3,N
1509954115.3,286046994.2,N
1509954135.1,286046995.0,N
1509954136.0,286046995.0,N
1509954155.8,286046994.8,N
1509954175.7,286046989.6,Y
1509954195.5,286046989.2,P
1509954215.3,286046988.6,P
1509954235.2,286046989.6,N
1509954255.0,286046986.4,Y
1509954255.9,286046986.4,P
1509954275.8,286046999.2,N
1509954295.6,286046996.6,N
1509954315.4,286046996.4,N
1509954335.3,286046998.6,N
1509954355.1,286047001.0,N
1509954375.8,286046999.6,N
1509954395.7,286046993.9,N
1509954415.5,286046994.7,N
1509954435.3,286046997.2,N
1509954455.2,286046994.9,N
1509954475.0,286046997.2,N
1509954475.9,286046997.2,N
1509954495.8,286046996.2,N
1509954515.6,286046995.4,N
1509954535.4,286046994.0,N
1509954555.3,286046987.0,Y
1509954575.1,286046989.9,P
1509954595.8,286046985.9,P
1509954615.7,286046981.7,P
1509954635.5,286046979.1,Y
1509954655.4,286046988.2,P
1509954675.2,286046988.6,P
1509954695.0,286046990.7,P
1509954696.0,286046990.7,Y
1509954715.8,286047001.8,P
1509954735.6,286046999.3,N
1509954755.5,286046999.8,N
1509954775.3,286047000.9,N
1509954795.1,286047002.0,N
1509954815.9,286047000.9,N
1509954835.7,286047002.7,N
1509954855.5,286047001.0,N
1509954875.4,286046997.4,N
1509954895.2,286046997.6,N
1509954915.0,286046995.2,N
1509954915.9,286046995.2,N
1509954935.8,286046998.6,N
1509954955.6,286046998.2,N
1509954975.4,286046999.9,N
1509954995.3,286046998.1,N
1509955015.1,286046999.8,N
1509955035.8,286047001.6,N
1509955055.7,286046999.1,N
1509955075.5,286046995.3,N
1509955095.4,286046993.1,N
1509955115.2,286046992.5,N
1509955135.0,286046992.8,N
1509955135.9,286046992.8,N
1509955155.8,286046992.8,N
1509955175.6,286046992.7,N
1509955195.4,286046990.9,N
